| time (UTC) | temp C | wind direction | speed KPH | gust KPH | rain 1hr cm | rain 24hr cm | rain mn cm | humidity % | barometer mb |
| 20260510043548 | 12 | 217 | 0.0 | 0.0 | 0.00 | 0.00 | 0.00 | 72 | 1009.3 |
| 20260510043018 | 12 | 217 | 0.0 | 0.0 | 0.00 | 0.00 | 0.00 | 70 | 1009.3 |
| 20260510042540 | 12 | 217 | 0.0 | 0.0 | 0.00 | 0.00 | 0.00 | 70 | 1009.2 |
| 20260510042001 | 13 | 217 | 0.0 | 0.0 | 0.00 | 0.00 | 0.00 | 71 | 1009.2 |
| 20260510041523 | 13 | 217 | 0.0 | 0.0 | 0.00 | 0.00 | 0.00 | 71 | 1009.2 |
| 20260510041044 | 13 | 217 | 0.0 | 0.0 | 0.00 | 0.00 | 0.00 | 71 | 1009.2 |
| 20260510040505 | 13 | 217 | 0.0 | 1.6 | 0.00 | 0.00 | 0.00 | 71 | 1009.2 |
| 20260510040038 | 13 | 217 | 0.0 | 1.6 | 0.00 | 0.00 | 0.00 | 71 | 1009.3 |
| 20260510035501 | 13 | 217 | 0.0 | 0.0 | 0.00 | 0.00 | 0.00 | 70 | 1009.3 |
| 20260510035026 | 13 | 217 | 0.0 | 3.2 | 0.00 | 0.00 | 0.00 | 69 | 1009.4 |
| 20260510034552 | 14 | 217 | 0.0 | 3.2 | 0.00 | 0.00 | 0.00 | 70 | 1009.3 |
| 20260510034027 | 14 | 224 | 0.0 | 0.0 | 0.00 | 0.00 | 0.00 | 70 | 1009.2 |
| 20260510033553 | 14 | 223 | 0.0 | 0.0 | 0.00 | 0.00 | 0.00 | 70 | 1009.1 |
| 20260510033021 | 14 | 223 | 0.0 | 1.6 | 0.00 | 0.00 | 0.00 | 68 | 1009.0 |
| 20260510032539 | 14 | 221 | 0.0 | 0.0 | 0.00 | 0.00 | 0.00 | 69 | 1009.0 |
| 20260510032012 | 14 | 221 | 0.0 | 1.6 | 0.00 | 0.00 | 0.00 | 69 | 1008.9 |
| 20260510031539 | 14 | 221 | 0.0 | 1.6 | 0.00 | 0.00 | 0.00 | 70 | 1008.9 |
| 20260510031001 | 14 | 221 | 0.0 | 1.6 | 0.00 | 0.00 | 0.00 | 68 | 1008.9 |
| 20260510030526 | 15 | 221 | 0.0 | 0.0 | 0.00 | 0.00 | 0.00 | 68 | 1008.8 |
| 20260510030049 | 15 | 221 | 0.0 | 0.0 | 0.00 | 0.00 | 0.00 | 68 | 1008.8 |
| 20260510025512 | 15 | 217 | 0.0 | 0.0 | 0.00 | 0.00 | 0.00 | 68 | 1008.8 |
| 20260510025038 | 15 | 217 | 0.0 | 0.0 | 0.00 | 0.00 | 0.00 | 69 | 1008.7 |
| 20260510024502 | 15 | 217 | 0.0 | 0.0 | 0.00 | 0.00 | 0.00 | 68 | 1008.7 |
| 20260510024037 | 15 | 217 | 0.0 | 0.0 | 0.00 | 0.00 | 0.00 | 68 | 1008.7 |
| 20260510023502 | 15 | 217 | 0.0 | 0.0 | 0.00 | 0.00 | 0.00 | 67 | 1008.5 |
| 20260510023031 | 15 | 217 | 0.0 | 0.0 | 0.00 | 0.00 | 0.00 | 67 | 1008.6 |
| 20260510022554 | 15 | 217 | 0.0 | 0.0 | 0.00 | 0.00 | 0.00 | 66 | 1008.5 |
| 20260510022026 | 16 | 217 | 0.0 | 1.6 | 0.00 | 0.00 | 0.00 | 66 | 1008.6 |
| 20260510021552 | 16 | 217 | 0.0 | 1.6 | 0.00 | 0.00 | 0.00 | 65 | 1008.5 |
| 20260510021012 | 16 | 217 | 0.0 | 0.0 | 0.00 | 0.00 | 0.00 | 64 | 1008.3 |
| 20260510020548 | 16 | 217 | 0.0 | 0.0 | 0.00 | 0.00 | 0.00 | 63 | 1008.3 |
| 20260510020010 | 17 | 217 | 0.0 | 0.0 | 0.00 | 0.00 | 0.00 | 64 | 1008.1 |
| 20260510015534 | 17 | 217 | 0.0 | 0.0 | 0.00 | 0.00 | 0.00 | 63 | 1008.0 |
| 20260510015007 | 17 | 217 | 0.0 | 0.0 | 0.00 | 0.00 | 0.00 | 60 | 1007.9 |
| 20260510014543 | 17 | 217 | 0.0 | 0.0 | 0.00 | 0.00 | 0.00 | 60 | 1007.8 |
| 20260510014005 | 17 | 217 | 0.0 | 0.0 | 0.00 | 0.00 | 0.00 | 59 | 1007.7 |
| 20260510013530 | 17 | 217 | 0.0 | 0.0 | 0.00 | 0.00 | 0.00 | 60 | 1007.6 |
| 20260510013054 | 17 | 217 | 0.0 | 0.0 | 0.00 | 0.00 | 0.00 | 59 | 1007.5 |
| 20260510012519 | 17 | 216 | 0.0 | 0.0 | 0.00 | 0.00 | 0.00 | 60 | 1007.4 |
| 20260510012047 | 17 | 216 | 0.0 | 0.0 | 0.00 | 0.00 | 0.00 | 60 | 1007.2 |
| 20260510011509 | 17 | 216 | 0.0 | 0.0 | 0.00 | 0.00 | 0.00 | 62 | 1007.2 |
| 20260510011034 | 17 | 216 | 0.0 | 1.6 | 0.00 | 0.00 | 0.00 | 62 | 1007.1 |
| 20260510010550 | 17 | 216 | 0.0 | 1.6 | 0.00 | 0.00 | 0.00 | 61 | 1007.1 |
| 20260510010015 | 17 | 216 | 0.0 | 1.6 | 0.00 | 0.00 | 0.00 | 61 | 1007.0 |
| 20260510005535 | 17 | 216 | 0.0 | 1.6 | 0.00 | 0.00 | 0.00 | 60 | 1006.9 |
| 20260510005059 | 18 | 216 | 0.0 | 1.6 | 0.00 | 0.00 | 0.00 | 60 | 1006.8 |
| 20260510004531 | 18 | 216 | 0.0 | 1.6 | 0.00 | 0.00 | 0.00 | 60 | 1006.7 |
| 20260510004057 | 18 | 216 | 0.0 | 1.6 | 0.00 | 0.00 | 0.00 | 59 | 1006.6 |
| 20260510003520 | 18 | 216 | 0.0 | 1.6 | 0.00 | 0.00 | 0.00 | 59 | 1006.5 |
| 20260510003057 | 18 | 214 | 0.0 | 1.6 | 0.00 | 0.00 | 0.00 | 59 | 1006.4 |
| 20260510002509 | 18 | 214 | 0.0 | 1.6 | 0.00 | 0.00 | 0.00 | 59 | 1006.2 |
| 20260510002032 | 18 | 214 | 0.0 | 1.6 | 0.00 | 0.00 | 0.00 | 59 | 1006.2 |
| 20260510001558 | 18 | 214 | 0.0 | 1.6 | 0.00 | 0.00 | 0.00 | 59 | 1006.3 |
| 20260510001029 | 18 | 214 | 0.0 | 0.0 | 0.00 | 0.00 | 0.00 | 58 | 1006.1 |
| 20260510000556 | 18 | 214 | 0.0 | 0.0 | 0.00 | 0.00 | 0.00 | 59 | 1006.1 |
| 20260510000016 | 18 | 214 | 0.0 | 0.0 | 0.00 | 0.00 | 0.00 | 58 | 1006.0 |
| 20260509235540 | 18 | 214 | 0.0 | 0.0 | 0.00 | 0.00 | 0.00 | 57 | 1006.0 |
| 20260509235057 | 19 | 214 | 0.0 | 0.0 | 0.00 | 0.00 | 0.00 | 57 | 1006.1 |
| 20260509234535 | 19 | 214 | 0.0 | 1.6 | 0.00 | 0.00 | 0.00 | 57 | 1006.0 |
| 20260509234045 | 19 | 214 | 0.0 | 1.6 | 0.00 | 0.00 | 0.00 | 57 | 1006.1 |
| 20260509233506 | 19 | 214 | 0.0 | 0.0 | 0.00 | 0.00 | 0.00 | 57 | 1006.0 |
| 20260509233041 | 19 | 214 | 0.0 | 0.0 | 0.00 | 0.00 | 0.00 | 56 | 1006.0 |
| 20260509232503 | 20 | 214 | 0.0 | 0.0 | 0.00 | 0.00 | 0.00 | 56 | 1006.0 |
| 20260509232028 | 20 | 214 | 0.0 | 0.0 | 0.00 | 0.00 | 0.00 | 56 | 1006.0 |
| 20260509231601 | 20 | 214 | 0.0 | 0.0 | 0.00 | 0.00 | 0.00 | 56 | 1005.9 |
| 20260509231030 | 20 | 214 | 0.0 | 0.0 | 0.00 | 0.00 | 0.00 | 55 | 1005.9 |
| 20260509230551 | 20 | 214 | 0.0 | 1.6 | 0.00 | 0.00 | 0.00 | 54 | 1005.9 |
| 20260509230014 | 20 | 214 | 0.0 | 1.6 | 0.00 | 0.00 | 0.00 | 54 | 1005.8 |
| 20260509225549 | 20 | 214 | 0.0 | 1.6 | 0.00 | 0.00 | 0.00 | 54 | 1005.8 |
| 20260509225010 | 20 | 214 | 0.0 | 1.6 | 0.00 | 0.00 | 0.00 | 54 | 1005.7 |
| 20260509224546 | 20 | 214 | 0.0 | 1.6 | 0.00 | 0.00 | 0.00 | 54 | 1005.9 |
| 20260509224008 | 20 | 217 | 0.0 | 1.6 | 0.00 | 0.00 | 0.00 | 53 | 1005.9 |
| 20260509223543 | 20 | 217 | 0.0 | 1.6 | 0.00 | 0.00 | 0.00 | 53 | 1006.0 |
| 20260509223005 | 20 | 217 | 0.0 | 3.2 | 0.00 | 0.00 | 0.00 | 52 | 1005.9 |
| 20260509222529 | 20 | 217 | 0.0 | 3.2 | 0.00 | 0.00 | 0.00 | 52 | 1005.9 |
| 20260509222043 | 20 | 217 | 0.0 | 1.6 | 0.00 | 0.00 | 0.00 | 52 | 1005.9 |
| 20260509221507 | 20 | 213 | 0.0 | 3.2 | 0.00 | 0.00 | 0.00 | 52 | 1005.9 |
| 20260509221032 | 20 | 213 | 0.0 | 3.2 | 0.00 | 0.00 | 0.00 | 52 | 1005.9 |
| 20260509220557 | 20 | 212 | 0.0 | 1.6 | 0.00 | 0.00 | 0.00 | 53 | 1005.9 |
| 20260509220027 | 20 | 212 | 0.0 | 0.0 | 0.00 | 0.00 | 0.00 | 52 | 1005.8 |
| 20260509215553 | 20 | 212 | 0.0 | 3.2 | 0.00 | 0.00 | 0.00 | 51 | 1005.8 |
| 20260509215017 | 20 | 212 | 0.0 | 3.2 | 0.00 | 0.00 | 0.00 | 53 | 1005.8 |
| 20260509214543 | 20 | 211 | 0.0 | 1.6 | 0.00 | 0.00 | 0.00 | 53 | 1005.8 |
| 20260509214017 | 20 | 211 | 0.0 | 1.6 | 0.00 | 0.00 | 0.00 | 54 | 1005.8 |
| 20260509213537 | 20 | 211 | 0.0 | 1.6 | 0.00 | 0.00 | 0.00 | 54 | 1005.8 |
| 20260509213003 | 20 | 211 | 0.0 | 1.6 | 0.00 | 0.00 | 0.00 | 53 | 1005.7 |
| 20260509212536 | 20 | 211 | 0.0 | 3.2 | 0.00 | 0.00 | 0.00 | 54 | 1005.7 |
| 20260509212001 | 20 | 211 | 0.0 | 3.2 | 0.00 | 0.00 | 0.00 | 53 | 1005.7 |
| 20260509211526 | 20 | 211 | 0.0 | 3.2 | 0.00 | 0.00 | 0.00 | 52 | 1005.6 |
| 20260509211051 | 20 | 211 | 0.0 | 1.6 | 0.00 | 0.00 | 0.00 | 53 | 1005.4 |
| 20260509210525 | 20 | 210 | 0.0 | 1.6 | 0.00 | 0.00 | 0.00 | 52 | 1005.6 |
| 20260509210057 | 20 | 210 | 0.0 | 1.6 | 0.00 | 0.00 | 0.00 | 52 | 1005.5 |
| 20260509205511 | 20 | 211 | 0.0 | 1.6 | 0.00 | 0.00 | 0.00 | 51 | 1005.4 |
| 20260509205039 | 20 | 211 | 0.0 | 3.2 | 0.00 | 0.00 | 0.00 | 49 | 1005.4 |
| 20260509204556 | 21 | 211 | 0.0 | 3.2 | 0.00 | 0.00 | 0.00 | 49 | 1005.5 |
| 20260509204017 | 21 | 211 | 0.0 | 4.8 | 0.00 | 0.00 | 0.00 | 48 | 1005.4 |
| 20260509203540 | 21 | 188 | 0.0 | 1.6 | 0.00 | 0.00 | 0.00 | 50 | 1005.3 |
| 20260509203118 | 21 | 184 | 0.0 | 1.6 | 0.00 | 0.00 | 0.00 | 51 | 1005.3 |
| 20260509202535 | 21 | 184 | 0.0 | 1.6 | 0.00 | 0.00 | 0.00 | 52 | 1005.4 |
| 20260509202101 | 21 | 184 | 0.0 | 1.6 | 0.00 | 0.00 | 0.00 | 52 | 1005.4 |
| 20260509201522 | 21 | 182 | 0.0 | 1.6 | 0.00 | 0.00 | 0.00 | 48 | 1005.4 |
| 20260509201045 | 21 | 182 | 0.0 | 4.8 | 0.00 | 0.00 | 0.00 | 48 | 1005.4 |
| 20260509200507 | 21 | 163 | 1.6 | 4.8 | 0.00 | 0.00 | 0.00 | 49 | 1005.3 |
| 20260509200031 | 21 | 167 | 0.0 | 3.2 | 0.00 | 0.00 | 0.00 | 47 | 1005.4 |
| 20260509195559 | 21 | 162 | 0.0 | 3.2 | 0.00 | 0.00 | 0.00 | 49 | 1005.5 |
| 20260509195019 | 21 | 162 | 0.0 | 4.8 | 0.00 | 0.00 | 0.00 | 49 | 1005.6 |
| 20260509194542 | 21 | 160 | 0.0 | 4.8 | 0.00 | 0.00 | 0.00 | 48 | 1005.7 |
| 20260509194002 | 21 | 169 | 0.0 | 4.8 | 0.00 | 0.00 | 0.00 | 50 | 1005.7 |
| 20260509193525 | 21 | 190 | 0.0 | 3.2 | 0.00 | 0.00 | 0.00 | 49 | 1005.8 |
| 20260509193051 | 21 | 189 | 0.0 | 3.2 | 0.00 | 0.00 | 0.00 | 49 | 1005.8 |
| 20260509192520 | 21 | 198 | 0.0 | 4.8 | 0.00 | 0.00 | 0.00 | 48 | 1006.0 |
| 20260509192047 | 21 | 171 | 0.0 | 4.8 | 0.00 | 0.00 | 0.00 | 49 | 1006.0 |
| 20260509191510 | 21 | 209 | 0.0 | 3.2 | 0.00 | 0.00 | 0.00 | 47 | 1006.0 |
| 20260509191034 | 21 | 233 | 0.0 | 4.8 | 0.00 | 0.00 | 0.00 | 49 | 1006.0 |
| 20260509190549 | 21 | 305 | 0.0 | 4.8 | 0.00 | 0.00 | 0.00 | 46 | 1006.0 |
| 20260509190013 | 21 | 188 | 1.6 | 8.0 | 0.00 | 0.00 | 0.00 | 47 | 1006.0 |
| 20260509185536 | 21 | 190 | 0.0 | 8.0 | 0.00 | 0.00 | 0.00 | 47 | 1006.1 |
| 20260509185057 | 21 | 153 | 1.6 | 8.0 | 0.00 | 0.00 | 0.00 | 48 | 1006.1 |
| 20260509184525 | 21 | 213 | 0.0 | 6.4 | 0.00 | 0.00 | 0.00 | 47 | 1006.2 |
| 20260509184041 | 21 | 198 | 0.0 | 4.8 | 0.00 | 0.00 | 0.00 | 50 | 1006.3 |
| 20260509183510 | 21 | 339 | 0.0 | 4.8 | 0.00 | 0.00 | 0.00 | 52 | 1006.3 |
| 20260509183032 | 21 | 202 | 0.0 | 3.2 | 0.00 | 0.00 | 0.00 | 51 | 1006.4 |
| 20260509182554 | 20 | 192 | 0.0 | 4.8 | 0.00 | 0.00 | 0.00 | 53 | 1006.4 |
| 20260509182015 | 20 | 229 | 0.0 | 3.2 | 0.00 | 0.00 | 0.00 | 54 | 1006.5 |
| 20260509181540 | 20 | 209 | 0.0 | 8.0 | 0.00 | 0.00 | 0.00 | 54 | 1006.6 |
| 20260509181100 | 20 | 162 | 1.6 | 8.0 | 0.00 | 0.00 | 0.00 | 56 | 1006.7 |
| 20260509180520 | 19 | 227 | 0.0 | 3.2 | 0.00 | 0.00 | 0.00 | 57 | 1006.8 |
| 20260509180109 | 18 | 229 | 0.0 | 3.2 | 0.00 | 0.00 | 0.00 | 58 | 1006.9 |
| 20260509175504 | 18 | 230 | 0.0 | 4.8 | 0.00 | 0.00 | 0.00 | 60 | 1007.0 |
| 20260509175028 | 18 | 230 | 0.0 | 4.8 | 0.00 | 0.00 | 0.00 | 58 | 1007.0 |
| 20260509174553 | 18 | 230 | 0.0 | 3.2 | 0.00 | 0.00 | 0.00 | 59 | 1007.2 |
| 20260509174012 | 18 | 230 | 0.0 | 3.2 | 0.00 | 0.00 | 0.00 | 58 | 1007.3 |
| 20260509173537 | 18 | 229 | 0.0 | 3.2 | 0.00 | 0.00 | 0.00 | 59 | 1007.3 |
| 20260509173111 | 18 | 229 | 0.0 | 3.2 | 0.00 | 0.00 | 0.00 | 60 | 1007.4 |
| 20260509172527 | 18 | 229 | 0.0 | 3.2 | 0.00 | 0.00 | 0.00 | 56 | 1007.4 |
| 20260509172050 | 18 | 212 | 0.0 | 3.2 | 0.00 | 0.00 | 0.00 | 57 | 1007.6 |
| 20260509171513 | 18 | 187 | 0.0 | 1.6 | 0.00 | 0.00 | 0.00 | 59 | 1007.5 |
| 20260509171047 | 18 | 186 | 0.0 | 1.6 | 0.00 | 0.00 | 0.00 | 58 | 1007.5 |
| 20260509170510 | 18 | 185 | 0.0 | 3.2 | 0.00 | 0.00 | 0.00 | 56 | 1007.5 |
| 20260509170046 | 18 | 182 | 0.0 | 3.2 | 0.00 | 0.00 | 0.00 | 58 | 1007.6 |
| 20260509165502 | 18 | 179 | 0.0 | 1.6 | 0.00 | 0.00 | 0.00 | 58 | 1007.6 |
| 20260509165027 | 18 | 179 | 0.0 | 3.2 | 0.00 | 0.00 | 0.00 | 57 | 1007.6 |
| 20260509164553 | 18 | 179 | 0.0 | 4.8 | 0.00 | 0.00 | 0.00 | 60 | 1007.6 |
| 20260509164022 | 18 | 176 | 0.0 | 4.8 | 0.00 | 0.00 | 0.00 | 58 | 1007.6 |
| 20260509163544 | 18 | 17 | 0.0 | 3.2 | 0.00 | 0.00 | 0.00 | 59 | 1007.7 |
| 20260509163005 | 18 | 215 | 0.0 | 1.6 | 0.00 | 0.00 | 0.00 | 59 | 1007.7 |
| 20260509162539 | 18 | 215 | 0.0 | 1.6 | 0.00 | 0.00 | 0.00 | 59 | 1007.6 |
| 20260509162003 | 18 | 215 | 0.0 | 3.2 | 0.00 | 0.00 | 0.00 | 57 | 1007.5 |
| 20260509161527 | 18 | 215 | 0.0 | 3.2 | 0.00 | 0.00 | 0.00 | 58 | 1007.6 |
| 20260509161051 | 18 | 198 | 0.0 | 3.2 | 0.00 | 0.00 | 0.00 | 57 | 1007.6 |
| 20260509160514 | 18 | 192 | 0.0 | 3.2 | 0.00 | 0.00 | 0.00 | 59 | 1007.7 |
| 20260509160037 | 18 | 192 | 0.0 | 3.2 | 0.00 | 0.00 | 0.00 | 60 | 1007.7 |
| 20260509155558 | 17 | 195 | 0.0 | 4.8 | 0.00 | 0.00 | 0.00 | 62 | 1007.7 |
| 20260509155015 | 17 | 192 | 0.0 | 4.8 | 0.00 | 0.00 | 0.00 | 61 | 1007.6 |
| 20260509154540 | 17 | 220 | 0.0 | 3.2 | 0.00 | 0.00 | 0.00 | 64 | 1007.7 |
| 20260509154007 | 17 | 220 | 0.0 | 3.2 | 0.00 | 0.00 | 0.00 | 61 | 1007.7 |
| 20260509153528 | 17 | 220 | 0.0 | 6.4 | 0.00 | 0.00 | 0.00 | 61 | 1007.8 |
| 20260509153108 | 17 | 220 | 0.0 | 6.4 | 0.00 | 0.00 | 0.00 | 61 | 1007.8 |
| 20260509152517 | 17 | 222 | 0.0 | 3.2 | 0.00 | 0.00 | 0.00 | 65 | 1007.7 |
| 20260509152039 | 17 | 222 | 0.0 | 3.2 | 0.00 | 0.00 | 0.00 | 65 | 1007.7 |
| 20260509151510 | 17 | 222 | 0.0 | 3.2 | 0.00 | 0.00 | 0.00 | 64 | 1007.6 |
| 20260509151034 | 17 | 222 | 0.0 | 1.6 | 0.00 | 0.00 | 0.00 | 66 | 1007.6 |
| 20260509150604 | 17 | 222 | 0.0 | 3.2 | 0.00 | 0.00 | 0.00 | 64 | 1007.5 |
| 20260509150023 | 17 | 211 | 0.0 | 4.8 | 0.00 | 0.00 | 0.00 | 65 | 1007.6 |
| 20260509145550 | 17 | 211 | 0.0 | 4.8 | 0.00 | 0.00 | 0.00 | 63 | 1007.7 |
| 20260509145011 | 17 | 178 | 0.0 | 3.2 | 0.00 | 0.00 | 0.00 | 64 | 1007.8 |
| 20260509144536 | 17 | 179 | 0.0 | 3.2 | 0.00 | 0.00 | 0.00 | 64 | 1007.7 |
| 20260509144008 | 17 | 178 | 0.0 | 4.8 | 0.00 | 0.00 | 0.00 | 64 | 1007.6 |
| 20260509143533 | 16 | 178 | 0.0 | 4.8 | 0.00 | 0.00 | 0.00 | 65 | 1007.6 |
| 20260509143105 | 16 | 198 | 0.0 | 3.2 | 0.00 | 0.00 | 0.00 | 66 | 1007.5 |
| 20260509142512 | 16 | 174 | 0.0 | 3.2 | 0.00 | 0.00 | 0.00 | 67 | 1007.6 |
| 20260509142032 | 15 | 170 | 0.0 | 4.8 | 0.00 | 0.00 | 0.00 | 67 | 1007.7 |
| 20260509141554 | 15 | 170 | 0.0 | 4.8 | 0.00 | 0.00 | 0.00 | 66 | 1007.8 |
| 20260509141015 | 15 | 231 | 0.0 | 3.2 | 0.00 | 0.00 | 0.00 | 68 | 1008.0 |
| 20260509140537 | 15 | 231 | 0.0 | 3.2 | 0.00 | 0.00 | 0.00 | 68 | 1008.2 |
| 20260509140006 | 15 | 231 | 0.0 | 3.2 | 0.00 | 0.00 | 0.00 | 67 | 1008.3 |
| 20260509135531 | 15 | 231 | 0.0 | 3.2 | 0.00 | 0.00 | 0.00 | 69 | 1008.5 |
| 20260509135050 | 15 | 231 | 0.0 | 3.2 | 0.00 | 0.00 | 0.00 | 69 | 1008.5 |
| 20260509134524 | 14 | 231 | 0.0 | 3.2 | 0.00 | 0.00 | 0.00 | 68 | 1008.6 |
| 20260509134034 | 14 | 232 | 0.0 | 1.6 | 0.00 | 0.00 | 0.00 | 69 | 1008.8 |
| 20260509133506 | 14 | 232 | 0.0 | 1.6 | 0.00 | 0.00 | 0.00 | 69 | 1008.8 |
| 20260509133030 | 13 | 232 | 0.0 | 3.2 | 0.00 | 0.00 | 0.00 | 68 | 1008.8 |
| 20260509132551 | 13 | 232 | 0.0 | 3.2 | 0.00 | 0.00 | 0.00 | 66 | 1008.9 |
| 20260509132013 | 13 | 232 | 0.0 | 3.2 | 0.00 | 0.00 | 0.00 | 68 | 1008.9 |
| 20260509131534 | 13 | 232 | 0.0 | 1.6 | 0.00 | 0.00 | 0.00 | 68 | 1008.8 |
| 20260509131003 | 13 | 232 | 0.0 | 1.6 | 0.00 | 0.00 | 0.00 | 68 | 1008.8 |
| 20260509130528 | 13 | 232 | 0.0 | 1.6 | 0.00 | 0.00 | 0.00 | 69 | 1008.8 |
| 20260509130056 | 13 | 232 | 0.0 | 1.6 | 0.00 | 0.00 | 0.00 | 68 | 1008.8 |
| 20260509125528 | 13 | 232 | 0.0 | 1.6 | 0.00 | 0.00 | 0.00 | 68 | 1008.8 |
| 20260509125049 | 13 | 232 | 0.0 | 1.6 | 0.00 | 0.00 | 0.00 | 68 | 1008.7 |
| 20260509124515 | 13 | 232 | 0.0 | 1.6 | 0.00 | 0.00 | 0.00 | 69 | 1008.7 |
| 20260509124034 | 13 | 232 | 0.0 | 1.6 | 0.00 | 0.00 | 0.00 | 69 | 1008.6 |
| 20260509123601 | 13 | 232 | 0.0 | 1.6 | 0.00 | 0.00 | 0.00 | 69 | 1008.7 |
| 20260509123021 | 13 | 232 | 0.0 | 1.6 | 0.00 | 0.00 | 0.00 | 69 | 1008.7 |
| 20260509122544 | 13 | 232 | 0.0 | 1.6 | 0.00 | 0.00 | 0.00 | 69 | 1008.7 |
| 20260509122016 | 12 | 232 | 0.0 | 1.6 | 0.00 | 0.00 | 0.00 | 69 | 1008.8 |
| 20260509121548 | 12 | 232 | 0.0 | 1.6 | 0.00 | 0.00 | 0.00 | 69 | 1008.9 |
| 20260509121003 | 12 | 232 | 0.0 | 1.6 | 0.00 | 0.00 | 0.00 | 69 | 1008.9 |
| 20260509120538 | 12 | 232 | 0.0 | 1.6 | 0.00 | 0.00 | 0.00 | 69 | 1008.8 |
| 20260509115521 | 12 | 232 | 0.0 | 1.6 | 0.00 | 0.00 | 0.00 | 68 | 1008.9 |
| 20260509115045 | 12 | 232 | 0.0 | 1.6 | 0.00 | 0.00 | 0.00 | 68 | 1008.8 |
| 20260509114507 | 12 | 232 | 0.0 | 1.6 | 0.00 | 0.00 | 0.00 | 68 | 1008.9 |
| 20260509114028 | 12 | 232 | 0.0 | 1.6 | 0.00 | 0.00 | 0.00 | 67 | 1009.0 |
| 20260509113555 | 12 | 232 | 0.0 | 1.6 | 0.00 | 0.00 | 0.00 | 67 | 1008.9 |
| 20260509113011 | 12 | 232 | 0.0 | 1.6 | 0.00 | 0.00 | 0.00 | 66 | 1008.9 |
| 20260509112536 | 12 | 232 | 0.0 | 0.0 | 0.00 | 0.00 | 0.00 | 67 | 1008.9 |
| 20260509112059 | 12 | 232 | 0.0 | 1.6 | 0.00 | 0.00 | 0.00 | 66 | 1008.9 |
| 20260509111520 | 12 | 232 | 0.0 | 1.6 | 0.00 | 0.00 | 0.00 | 65 | 1008.9 |
| 20260509111044 | 12 | 232 | 0.0 | 1.6 | 0.00 | 0.00 | 0.00 | 64 | 1008.9 |
| 20260509110504 | 12 | 232 | 0.0 | 1.6 | 0.00 | 0.00 | 0.00 | 63 | 1008.8 |
| 20260509110030 | 12 | 232 | 0.0 | 0.0 | 0.00 | 0.00 | 0.00 | 63 | 1008.8 |
| 20260509105556 | 12 | 232 | 0.0 | 1.6 | 0.00 | 0.00 | 0.00 | 62 | 1008.8 |
| 20260509105027 | 12 | 232 | 0.0 | 1.6 | 0.00 | 0.00 | 0.00 | 62 | 1008.9 |
| 20260509104606 | 12 | 232 | 0.0 | 1.6 | 0.00 | 0.00 | 0.00 | 61 | 1008.9 |
| 20260509104013 | 12 | 232 | 0.0 | 1.6 | 0.00 | 0.00 | 0.00 | 61 | 1008.8 |
| 20260509103537 | 12 | 232 | 0.0 | 1.6 | 0.00 | 0.00 | 0.00 | 61 | 1008.8 |
| 20260509103001 | 12 | 232 | 0.0 | 3.2 | 0.00 | 0.00 | 0.00 | 61 | 1008.8 |
| 20260509102527 | 12 | 232 | 0.0 | 3.2 | 0.00 | 0.00 | 0.00 | 61 | 1008.8 |
| 20260509102050 | 12 | 232 | 0.0 | 3.2 | 0.00 | 0.00 | 0.00 | 61 | 1008.9 |
| 20260509101528 | 12 | 232 | 0.0 | 3.2 | 0.00 | 0.00 | 0.00 | 60 | 1008.9 |
| 20260509101045 | 12 | 232 | 0.0 | 3.2 | 0.00 | 0.00 | 0.00 | 60 | 1008.9 |
| 20260509100507 | 12 | 232 | 0.0 | 3.2 | 0.00 | 0.00 | 0.00 | 60 | 1008.9 |
| 20260509100041 | 12 | 232 | 0.0 | 3.2 | 0.00 | 0.00 | 0.00 | 59 | 1008.9 |
| 20260509095505 | 12 | 232 | 0.0 | 3.2 | 0.00 | 0.00 | 0.00 | 59 | 1008.9 |
| 20260509095026 | 12 | 232 | 0.0 | 3.2 | 0.00 | 0.00 | 0.00 | 59 | 1008.9 |
| 20260509094551 | 12 | 232 | 0.0 | 3.2 | 0.00 | 0.00 | 0.00 | 58 | 1008.9 |
| 20260509094012 | 12 | 232 | 0.0 | 3.2 | 0.00 | 0.00 | 0.00 | 58 | 1009.0 |
| 20260509093535 | 12 | 232 | 0.0 | 3.2 | 0.00 | 0.00 | 0.00 | 58 | 1009.1 |
| 20260509093103 | 12 | 232 | 0.0 | 3.2 | 0.00 | 0.00 | 0.00 | 57 | 1009.1 |
| 20260509092520 | 12 | 232 | 0.0 | 3.2 | 0.00 | 0.00 | 0.00 | 58 | 1009.1 |
| 20260509092045 | 12 | 232 | 0.0 | 3.2 | 0.00 | 0.00 | 0.00 | 57 | 1009.1 |
| 20260509091507 | 13 | 232 | 0.0 | 3.2 | 0.00 | 0.00 | 0.00 | 57 | 1009.3 |
| 20260509091040 | 13 | 232 | 0.0 | 3.2 | 0.00 | 0.00 | 0.00 | 56 | 1009.3 |
| 20260509090559 | 13 | 232 | 0.0 | 3.2 | 0.00 | 0.00 | 0.00 | 55 | 1009.2 |
| 20260509090045 | 13 | 232 | 0.0 | 3.2 | 0.00 | 0.00 | 0.00 | 55 | 1009.1 |
| 20260509085554 | 13 | 232 | 0.0 | 4.8 | 0.00 | 0.00 | 0.00 | 55 | 1009.2 |
| 20260509085019 | 13 | 232 | 0.0 | 4.8 | 0.00 | 0.00 | 0.00 | 55 | 1009.3 |
| 20260509084544 | 13 | 232 | 0.0 | 4.8 | 0.00 | 0.00 | 0.00 | 55 | 1009.3 |
| 20260509084015 | 13 | 232 | 0.0 | 3.2 | 0.00 | 0.00 | 0.00 | 56 | 1009.2 |
| 20260509083540 | 13 | 232 | 0.0 | 3.2 | 0.00 | 0.00 | 0.00 | 56 | 1009.2 |
| 20260509083006 | 13 | 232 | 0.0 | 3.2 | 0.00 | 0.00 | 0.00 | 55 | 1009.3 |
| 20260509082533 | 13 | 232 | 0.0 | 3.2 | 0.00 | 0.00 | 0.00 | 56 | 1009.2 |
| 20260509082055 | 13 | 232 | 0.0 | 3.2 | 0.00 | 0.00 | 0.00 | 55 | 1009.2 |
| 20260509081523 | 13 | 232 | 0.0 | 3.2 | 0.00 | 0.00 | 0.00 | 56 | 1009.4 |
| 20260509081040 | 13 | 232 | 0.0 | 3.2 | 0.00 | 0.00 | 0.00 | 56 | 1009.4 |
| 20260509080503 | 13 | 232 | 0.0 | 3.2 | 0.00 | 0.00 | 0.00 | 55 | 1009.4 |
| 20260509080026 | 13 | 232 | 0.0 | 3.2 | 0.00 | 0.00 | 0.00 | 55 | 1009.4 |
| 20260509075550 | 13 | 232 | 0.0 | 3.2 | 0.00 | 0.00 | 0.00 | 55 | 1009.4 |
| 20260509075022 | 13 | 232 | 0.0 | 3.2 | 0.00 | 0.00 | 0.00 | 54 | 1009.5 |
| 20260509074551 | 13 | 232 | 0.0 | 3.2 | 0.00 | 0.00 | 0.00 | 54 | 1009.6 |
| 20260509074011 | 13 | 232 | 0.0 | 3.2 | 0.00 | 0.00 | 0.00 | 53 | 1009.6 |
| 20260509073533 | 13 | 232 | 0.0 | 3.2 | 0.00 | 0.00 | 0.00 | 53 | 1009.6 |
| 20260509073059 | 13 | 229 | 0.0 | 3.2 | 0.00 | 0.00 | 0.00 | 53 | 1009.8 |
| 20260509072521 | 13 | 229 | 0.0 | 4.8 | 0.00 | 0.00 | 0.00 | 53 | 1009.8 |
| 20260509072044 | 13 | 229 | 0.0 | 4.8 | 0.00 | 0.00 | 0.00 | 53 | 1009.8 |
| 20260509071519 | 13 | 229 | 0.0 | 4.8 | 0.00 | 0.00 | 0.00 | 53 | 1009.9 |
| 20260509071042 | 13 | 229 | 0.0 | 4.8 | 0.00 | 0.00 | 0.00 | 52 | 1009.9 |
| 20260509070508 | 13 | 228 | 1.6 | 4.8 | 0.00 | 0.00 | 0.00 | 52 | 1009.9 |
| 20260509070043 | 13 | 229 | 0.0 | 6.4 | 0.00 | 0.00 | 0.00 | 52 | 1009.9 |
| 20260509065603 | 13 | 229 | 1.6 | 6.4 | 0.00 | 0.00 | 0.00 | 52 | 1009.9 |
| 20260509065024 | 13 | 229 | 1.6 | 4.8 | 0.00 | 0.00 | 0.00 | 52 | 1009.9 |
| 20260509064547 | 13 | 229 | 1.6 | 4.8 | 0.00 | 0.00 | 0.00 | 52 | 1010.0 |
| 20260509064014 | 13 | 229 | 0.0 | 4.8 | 0.00 | 0.00 | 0.00 | 52 | 1010.0 |
| 20260509063534 | 13 | 229 | 1.6 | 4.8 | 0.00 | 0.00 | 0.00 | 52 | 1010.1 |
| 20260509063112 | 13 | 229 | 0.0 | 4.8 | 0.00 | 0.00 | 0.00 | 52 | 1010.1 |
| 20260509062530 | 13 | 232 | 0.0 | 3.2 | 0.00 | 0.00 | 0.00 | 53 | 1010.2 |
| 20260509062055 | 13 | 232 | 0.0 | 3.2 | 0.00 | 0.00 | 0.00 | 53 | 1010.3 |
| 20260509061515 | 13 | 232 | 0.0 | 3.2 | 0.00 | 0.00 | 0.00 | 53 | 1010.4 |
| 20260509061037 | 13 | 232 | 0.0 | 3.2 | 0.00 | 0.00 | 0.00 | 53 | 1010.4 |
| 20260509060501 | 13 | 232 | 0.0 | 3.2 | 0.00 | 0.00 | 0.00 | 53 | 1010.3 |
| 20260509060042 | 13 | 232 | 0.0 | 3.2 | 0.00 | 0.00 | 0.00 | 54 | 1010.3 |
| 20260509055548 | 13 | 232 | 0.0 | 3.2 | 0.00 | 0.00 | 0.00 | 53 | 1010.4 |
| 20260509055016 | 13 | 232 | 0.0 | 3.2 | 0.00 | 0.00 | 0.00 | 54 | 1010.4 |
| 20260509054538 | 13 | 232 | 0.0 | 4.8 | 0.00 | 0.00 | 0.00 | 53 | 1010.4 |
| 20260509054003 | 13 | 232 | 0.0 | 4.8 | 0.00 | 0.00 | 0.00 | 53 | 1010.5 |
| 20260509053537 | 13 | 233 | 0.0 | 4.8 | 0.00 | 0.00 | 0.00 | 52 | 1010.5 |
| 20260509053103 | 13 | 233 | 1.6 | 3.2 | 0.00 | 0.00 | 0.00 | 52 | 1010.7 |
| 20260509052522 | 13 | 233 | 0.0 | 3.2 | 0.00 | 0.00 | 0.00 | 52 | 1010.5 |
| 20260509052047 | 13 | 233 | 0.0 | 3.2 | 0.00 | 0.00 | 0.00 | 52 | 1010.5 |
| 20260509051510 | 13 | 233 | 0.0 | 3.2 | 0.00 | 0.00 | 0.00 | 53 | 1010.6 |
| 20260509051033 | 13 | 232 | 0.0 | 4.8 | 0.00 | 0.00 | 0.00 | 53 | 1010.6 |
| 20260509050552 | 13 | 232 | 0.0 | 4.8 | 0.00 | 0.00 | 0.00 | 53 | 1010.6 |
| 20260509050013 | 13 | 219 | 0.0 | 6.4 | 0.00 | 0.00 | 0.00 | 53 | 1010.5 |
| 20260509045538 | 13 | 219 | 0.0 | 6.4 | 0.00 | 0.00 | 0.00 | 53 | 1010.5 |
| 20260509045013 | 13 | 215 | 0.0 | 4.8 | 0.00 | 0.00 | 0.00 | 53 | 1010.4 |
| 20260509044537 | 13 | 214 | 0.0 | 4.8 | 0.00 | 0.00 | 0.00 | 54 | 1010.4 |
| 20260509044103 | 13 | 213 | 0.0 | 4.8 | 0.00 | 0.00 | 0.00 | 54 | 1010.4 |